Wind_Speed
10 12 13 15 17 19 21 23 25 26 27 28 28 28 29 30 30 30 31 32 33 33 34 35 36 37 39 40 41 43 44 45 46 47 47 47 48 50 51 51 51 52 51 50
7 9 11 12 13 16 18 20 22 23 24 25 25 25 25 26 27 28 29 30 31 31 32 32 34 36 37 38 40 42 43 44 46 47 47 48 48 49 50 50 51 51 51 51
3 5 7 9 11 13 15 17 19 20 20 21 22 23 23 24 25 26 27 28 29 30 31 32 34 34 35 36 38 40 41 43 45 46 47 49 49 49 50 51 52 52 53 52
2 3 5 7 9 10 12 14 16 17 18 18 20 21 22 22 23 24 26 27 28 29 30 31 31 32 34 34 35 37 39 41 43 44 46 48 49 49 49 50 51 52 53 53
1 2 3 4 5 6 8 10 12 14 15 16 17 19 19 21 21 22 24 25 26 26 27 28 28 30 31 32 33 34 35 36 39 41 44 46 47 48 48 49 50 50 51 51
2 1 1 2 3 3 5 7 9 10 12 14 14 16 17 17 18 19 20 22 23 23 24 24 25 26 28 30 31 32 32 33 34 36 38 41 43 44 45 47 47 48 48 50
4 3 2 1 1 2 3 5 6 8 10 11 12 13 14 14 15 16 17 18 18 19 20 21 22 23 24 25 27 28 29 30 30 31 33 35 38 39 41 42 44 45 46 47
5 4 4 3 3 2 2 3 4 6 8 9 10 11 12 13 14 15 15 16 16 17 18 18 19 20 21 21 22 24 25 26 27 28 30 31 33 35 37 38 40 41 42 43
6 4 4 4 3 3 3 3 5 6 6 7 9 10 11 11 13 13 13 13 14 15 16 16 16 17 18 18 19 20 21 23 24 25 25 26 28 30 33 34 36 38 39 40
7 6 5 4 3 3 3 3 3 5 6 7 8 9 9 9 10 11 11 12 13 14 14 14 14 14 15 16 16 16 17 18 19 20 21 23 24 25 28 29 31 32 33 34
7 6 5 5 4 4 4 4 4 5 6 7 8 8 8 8 9 11 11 12 12 12 11 12 12 12 12 12 13 13 13 13 14 15 16 17 18 20 22 24 26 27 29 31
7 6 6 5 5 5 5 6 6 7 7 8 8 8 8 9 10 11 11 11 11 9 9 9 9 9 10 9 9 10 10 11 11 11 12 13 14 16 18 20 22 23 24 28
7 6 6 6 6 6 6 7 7 7 7 7 8 8 8 9 9 9 10 10 9 8 8 8 8 8 8 8 7 8 7 7 7 8 9 10 11 12 15 17 18 20 22 24
7 7 7 6 6 6 6 6 6 7 7 8 7 7 8 8 9 9 9 8 8 8 8 7 7 6 6 6 6 6 5 5 5 6 7 9 10 11 12 14 16 19 20 21
9 9 8 7 6 6 6 6 7 8 8 8 8 7 8 8 9 9 8 7 8 8 6 6 6 5 5 6 5 4 5 5 4 5 6 8 10 11 13 14 16 17 19 20
10 10 9 8 7 6 6 7 7 8 9 9 8 8 8 8 8 8 7 7 8 7 6 6 5 5 5 6 6 6 6 6 6 6 7 8 10 11 13 14 15 17 19 20
11 11 10 9 8 7 6 7 8 8 9 9 9 8 8 8 8 8 7 7 7 7 6 6 6 6 6 5 6 7 7 8 8 8 9 10 12 13 14 15 16 17 19 20
11 11 12 11 10 9 7 8 8 8 8 9 8 7 7 7 8 8 8 8 8 8 8 7 6 7 7 7 7 8 9 10 10 11 11 12 13 13 14 16 17 18 20 21
12 12 12 12 11 9 8 9 10 9 8 8 8 8 8 7 8 8 9 9 8 8 8 8 8 8 8 8 9 10 11 12 13 13 13 14 14 15 15 16 18 20 21 23
14 14 13 12 12 11 10 10 10 10 9 9 9 9 8 8 9 9 9 9 9 8 9 9 9 10 10 10 11 11 12 13 14 15 15 16 16 17 17 18 20 21 22 24
16 16 15 14 14 12 12 13 12 12 11 10 9 9 9 9 10 10 10 10 10 10 11 11 11 11 12 12 13 13 14 15 15 15 16 17 18 19 20 21 22 23 23 24
18 18 17 17 16 15 15 15 14 13 13 12 12 11 11 12 12 12 12 12 12 12 12 13 13 13 14 15 15 15 15 16 17 17 17 19 20 21 21 23 24 25 26 27
20 20 20 19 18 18 18 17 16 15 14 14 14 14 14 14 14 14 14 14 14 14 15 15 15 16 16 16 17 16 17 18 19 20 21 22 23 24 24 25 26 27 28 29
22 22 22 21 19 20 20 19 19 18 17 16 16 16 16 16 16 16 17 17 17 17 17 18 18 18 18 18 18 18 19 20 21 22 23 24 25 26 26 27 28 29 30 30
23 24 24 24 23 24 22 22 21 20 19 19 19 19 19 19 18 18 18 19 19 19 19 20 20 20 19 20 20 21 22 23 23 24 25 26 27 28 29 30 30 31 32 33
24 26 27 26 27 26 25 25 25 24 23 22 22 22 22 21 20 20 20 20 20 20 20 20 21 21 21 21 22 22 24 25 26 28 29 30 30 31 32 32 33 34 34 35
Wind_Direction
217 224 229 233 234 235 238 241 242 244 245 246 247 248 249 249 251 252 254 256 258 260 261 260 259 259 257 257 256 255 255 255 254 254 253 252 250 248 247 247 248 248 248 249
216 220 224 228 233 236 240 244 244 243 245 246 246 247 249 250 252 254 257 260 262 263 262 261 261 260 259 258 257 256 255 255 255 253 252 250 250 249 248 248 247 247 248 250
201 213 223 228 231 236 240 244 243 243 245 246 247 248 250 253 255 257 259 262 264 265 264 262 262 261 261 260 259 258 256 256 255 252 252 251 250 249 249 248 247 247 248 249
221 231 239 238 241 245 244 245 243 241 244 246 248 250 250 255 258 260 262 264 266 266 265 263 262 263 262 261 261 259 258 257 255 253 252 251 250 250 249 248 247 246 246 248
331 253 254 245 245 248 244 243 242 242 245 249 250 252 251 257 261 264 265 266 267 267 266 264 264 265 264 262 261 260 259 258 256 254 253 252 252 250 248 247 247 246 246 248
51 31 294 254 249 250 249 242 241 244 249 253 254 257 258 260 265 269 270 269 269 268 266 266 265 266 264 263 261 259 258 258 258 256 255 255 253 251 249 247 246 246 246 246
66 58 45 18 301 277 269 249 245 253 259 259 257 261 265 267 272 275 274 273 273 272 270 269 269 268 267 265 264 262 258 258 256 255 255 256 253 250 249 247 246 245 245 246
51 49 43 32 16 344 309 258 252 264 267 267 266 270 272 273 280 281 279 276 277 278 275 272 273 272 270 268 266 265 261 257 255 255 254 254 252 249 248 246 245 245 246 248
38 36 23 15 10 355 329 281 266 266 271 280 283 282 278 279 283 283 282 281 280 283 279 275 275 274 271 271 269 266 263 257 256 256 254 255 255 250 246 245 247 247 248 248
34 29 20 12 7 359 348 331 294 277 286 292 297 295 292 290 292 293 293 291 289 287 282 278 278 277 276 275 273 270 263 258 255 255 255 256 255 250 246 247 249 247 247 248
24 24 23 16 8 1 347 334 316 300 291 298 303 306 304 304 307 306 302 300 297 289 285 285 283 282 286 284 279 273 268 264 261 261 262 261 257 253 249 250 250 249 250 251
21 21 12 6 359 350 341 331 323 311 302 299 300 306 308 309 312 310 310 310 308 303 298 299 296 295 297 294 289 281 276 269 263 261 260 261 263 257 254 252 250 251 254 256
5 2 355 353 348 338 331 325 323 322 317 311 307 310 314 318 322 321 319 319 320 323 319 312 305 302 303 302 299 293 285 275 267 264 265 263 265 263 260 256 255 256 259 260
348 343 338 336 337 336 338 333 330 327 327 324 325 322 319 319 323 325 326 327 327 330 330 321 312 305 318 326 321 318 312 299 284 274 275 274 275 275 269 266 264 264 265 263
334 331 326 324 322 324 331 330 332 334 336 334 335 334 330 325 327 330 332 335 334 335 338 337 336 330 337 347 347 350 345 340 324 304 293 288 283 280 278 275 273 272 270 269
322 322 319 315 312 311 316 320 323 327 330 330 328 333 335 334 334 335 332 332 335 335 338 342 350 352 346 353 358 355 348 344 335 327 317 308 297 288 285 283 282 279 278 278
317 315 314 311 305 307 315 310 312 318 323 323 321 319 321 327 332 330 327 328 332 335 340 344 349 356 352 344 341 340 338 334 329 326 323 319 311 303 297 294 292 289 286 284
310 310 309 306 301 302 303 303 307 311 319 321 320 310 307 310 319 321 318 317 318 320 327 329 331 334 336 335 329 327 326 323 321 320 317 316 313 308 305 301 299 298 296 292
303 303 304 305 302 300 296 293 296 302 308 310 312 310 304 303 310 314 313 315 318 318 320 322 322 323 324 325 324 320 319 319 317 316 315 315 313 309 307 306 305 301 298 297
295 295 295 297 298 299 296 290 290 295 300 301 301 302 303 304 305 307 309 309 311 314 318 319 320 321 321 318 316 314 315 316 313 311 311 313 314 312 309 307 307 305 302 300
287 288 287 287 289 293 291 288 289 290 294 295 297 299 300 302 301 304 304 302 301 304 310 315 317 317 318 316 312 310 310 314 316 313 312 312 312 312 311 310 310 310 309 307
283 283 281 280 281 283 284 283 283 284 286 288 292 295 295 297 296 297 298 297 297 299 303 308 310 310 311 312 311 311 312 313 314 315 315 314 313 313 312 311 311 311 310 309
283 281 278 276 277 276 275 278 279 279 280 283 285 288 290 293 292 291 292 293 294 295 298 302 304 305 306 306 306 306 309 310 311 310 310 310 310 309 310 310 310 310 309 308
281 280 276 272 271 270 271 273 274 276 277 278 280 282 285 288 288 287 289 290 290 291 294 297 300 302 302 303 303 304 305 307 308 308 308 308 308 308 308 308 308 308 308 307
280 276 272 269 268 266 266 269 271 272 274 275 276 278 281 284 284 284 286 287 289 288 290 293 295 297 299 301 301 303 304 305 306 306 307 307 307 306 306 305 305 305 305 305
277 273 269 266 265 265 265 266 268 270 271 272 273 274 276 278 279 280 282 284 286 287 289 291 292 293 295 298 299 301 303 304 305 305 305 305 305 305 304 304 304 304 304 304
Height
5652 5656 5657 5660 5663 5665 5667 5670 5672 5675 5677 5679 5681 5683 5685 5687 5689 5691 5693 5694 5695 5696 5697 5698 5699 5701 5702 5704 5706 5708 5710 5712 5715 5718 5721 5724 5728 5732 5736 5740 5745 5748 5752 5756
5653 5654 5656 5658 5660 5662 5664 5666 5668 5670 5672 5674 5677 5679 5680 5682 5684 5685 5686 5688 5688 5689 5690 5690 5691 5692 5693 5694 5696 5698 5700 5702 5704 5706 5710 5713 5717 5720 5725 5729 5733 5737 5741 5745
5653 5655 5656 5657 5659 5660 5662 5663 5665 5667 5668 5670 5673 5675 5677 5678 5679 5680 5681 5681 5682 5682 5682 5683 5683 5684 5685 5685 5686 5688 5690 5691 5693 5695 5699 5702 5706 5709 5714 5718 5722 5726 5730 5734
5653 5655 5656 5657 5658 5659 5660 5661 5662 5664 5666 5667 5670 5671 5673 5673 5674 5675 5675 5675 5675 5675 5675 5675 5676 5676 5676 5677 5678 5679 5680 5681 5682 5685 5688 5691 5695 5699 5703 5706 5710 5714 5718 5722
5654 5655 5656 5657 5657 5658 5658 5659 5660 5662 5663 5665 5666 5667 5670 5669 5670 5670 5670 5670 5670 5669 5669 5669 5669 5669 5669 5669 5670 5671 5671 5672 5673 5675 5678 5681 5684 5687 5691 5695 5699 5703 5707 5711
5655 5656 5656 5656 5657 5657 5658 5659 5660 5660 5661 5663 5664 5664 5666 5666 5666 5665 5665 5664 5664 5663 5663 5662 5662 5662 5662 5662 5662 5663 5663 5664 5665 5667 5668 5670 5673 5676 5680 5683 5687 5691 5695 5699
5657 5657 5657 5657 5657 5658 5658 5659 5660 5660 5660 5661 5662 5662 5663 5662 5662 5661 5660 5660 5659 5658 5658 5657 5656 5656 5655 5655 5655 5655 5656 5657 5658 5659 5660 5661 5663 5666 5669 5673 5676 5680 5684 5688
5659 5659 5658 5658 5658 5658 5657 5658 5659 5660 5659 5660 5660 5659 5661 5660 5659 5658 5657 5656 5655 5654 5653 5652 5651 5651 5650 5650 5649 5649 5649 5650 5651 5652 5653 5654 5655 5657 5660 5663 5666 5670 5675 5679
5660 5660 5659 5658 5658 5658 5658 5658 5658 5659 5658 5658 5658 5658 5658 5657 5656 5655 5654 5653 5652 5651 5649 5648 5647 5647 5646 5645 5644 5644 5644 5644 5645 5645 5646 5647 5648 5649 5652 5655 5658 5662 5666 5670
5662 5661 5661 5660 5659 5659 5659 5658 5658 5658 5657 5657 5657 5656 5656 5655 5654 5653 5651 5650 5649 5648 5646 5645 5644 5643 5642 5641 5640 5639 5639 5639 5640 5640 5640 5641 5642 5643 5645 5648 5651 5654 5658 5661
5663 5663 5662 5661 5660 5659 5659 5659 5657 5657 5656 5655 5654 5657 5654 5653 5652 5650 5649 5647 5646 5645 5643 5642 5641 5640 5639 5638 5637 5636 5636 5636 5636 5636 5636 5637 5638 5639 5641 5643 5645 5648 5651 5653
5664 5664 5663 5662 5661 5660 5659 5658 5657 5657 5655 5654 5653 5656 5652 5651 5649 5648 5646 5645 5643 5642 5641 5640 5639 5638 5637 5636 5635 5634 5633 5633 5633 5633 5633 5634 5635 5635 5636 5638 5640 5642 5644 5646
5666 5665 5664 5663 5664 5662 5659 5658 5657 5656 5654 5653 5652 5654 5650 5649 5647 5646 5644 5643 5641 5640 5639 5638 5638 5637 5635 5634 5633 5632 5631 5631 5631 5631 5632 5632 5633 5633 5634 5635 5636 5637 5638 5640
5666 5665 5665 5664 5662 5660 5659 5658 5657 5655 5654 5652 5651 5650 5649 5647 5646 5644 5643 5641 5640 5639 5638 5637 5636 5635 5634 5633 5632 5631 5630 5630 5630 5630 5630 5630 5631 5631 5631 5631 5631 5632 5633 5634
5667 5666 5664 5663 5661 5660 5659 5658 5656 5655 5654 5652 5651 5649 5648 5646 5645 5643 5642 5641 5640 5638 5637 5636 5635 5634 5634 5632 5631 5630 5630 5629 5628 5628 5628 5628 5628 5628 5628 5628 5628 5628 5628 5628
5666 5665 5664 5663 5661 5659 5658 5657 5656 5654 5653 5651 5650 5649 5647 5645 5644 5642 5641 5640 5639 5638 5637 5636 5635 5634 5633 5632 5631 5630 5629 5628 5628 5627 5627 5626 5626 5625 5625 5624 5624 5624 5623 5623
5664 5663 5662 5662 5660 5659 5658 5657 5655 5654 5653 5651 5649 5649 5647 5645 5644 5642 5640 5639 5638 5637 5636 5635 5634 5633 5632 5631 5631 5630 5629 5628 5627 5626 5625 5624 5623 5622 5621 5621 5620 5619 5618 5617
5663 5661 5660 5659 5659 5658 5660 5656 5654 5653 5652 5650 5648 5647 5646 5644 5643 5641 5640 5639 5637 5636 5635 5634 5633 5633 5632 5630 5629 5628 5627 5626 5625 5624 5623 5622 5620 5619 5618 5617 5616 5614 5613 5612
5660 5659 5657 5657 5655 5656 5656 5654 5652 5651 5650 5649 5647 5646 5645 5643 5642 5641 5639 5638 5636 5635 5634 5633 5632 5631 5630 5629 5628 5627 5626 5624 5623 5621 5620 5619 5618 5616 5614 5613 5611 5609 5608 5606
5657 5656 5656 5654 5652 5653 5655 5651 5649 5649 5649 5647 5645 5644 5643 5642 5641 5640 5638 5636 5635 5634 5633 5632 5630 5629 5628 5627 5626 5625 5623 5622 5620 5618 5617 5615 5614 5612 5610 5608 5606 5604 5602 5600
5654 5653 5652 5650 5649 5650 5650 5648 5647 5647 5647 5645 5643 5642 5641 5640 5639 5638 5636 5634 5633 5632 5631 5630 5628 5627 5625 5624 5623 5622 5620 5619 5617 5615 5613 5611 5610 5608 5605 5603 5601 5598 5596 5593
5649 5648 5648 5646 5646 5648 5645 5644 5644 5644 5642 5641 5640 5639 5638 5637 5636 5634 5633 5632 5631 5630 5628 5627 5626 5624 5623 5621 5620 5618 5617 5615 5613 5611 5609 5607 5605 5603 5600 5598 5595 5592 5589 5586
5644 5644 5642 5642 5644 5642 5640 5639 5639 5638 5638 5637 5636 5636 5635 5633 5632 5631 5630 5629 5628 5626 5625 5624 5622 5621 5619 5618 5616 5615 5613 5611 5609 5607 5605 5602 5600 5597 5594 5592 5589 5586 5583 5580
5639 5637 5636 5635 5637 5635 5634 5633 5633 5633 5632 5632 5632 5631 5630 5629 5628 5627 5626 5625 5623 5622 5621 5620 5618 5617 5615 5613 5612 5610 5608 5606 5604 5602 5599 5596 5594 5591 5588 5585 5582 5578 5575 5572
5632 5630 5628 5628 5629 5627 5627 5627 5626 5626 5626 5626 5626 5626 5625 5624 5623 5622 5621 5620 5618 5617 5616 5615 5614 5612 5610 5608 5606 5604 5603 5600 5598 5595 5593 5590 5587 5583 5580 5577 5574 5571 5567 5564
5625 5621 5620 5620 5620 5619 5620 5620 5620 5620 5620 5620 5619 5619 5618 5618 5617 5616 5615 5614 5613 5612 5611 5609 5608 5606 5605 5603 5601 5599 5596 5594 5591 5589 5585 5582 5579 5575 5572 5569 5566 5562 5558 5554